This demonstration page uses our WeatherBlox Daily Observations layout. Learn more.

Hourly Observations for December 6, 2017

Temp ( °F °C ) Dew Point ( °F °C ) Humidity (%) Winds ( mph kmh ) Pressure ( in mb ) Visibility ( mi km ) Precip ( " mm )
12:53 am 00:53 Clear 31 -0.6 22 -5.6 69 69 SW 5 7 30.17 1022 10 16.0934 0 0
1:53 am 01:53 Clear 30 -1.1 22 -5.6 72 72 SSW 5 7 30.17 1022 10 16.0934 0 0
2:53 am 02:53 Clear 30 -1.1 22 -5.6 72 72 Calm 30.17 1022 10 16.0934 0 0
3:53 am 03:53 Clear 29 -1.7 22 -5.6 75 75 SSW 5 7 30.16 1021 10 16.0934 0 0
4:53 am 04:53 Clear 30 -1.1 22 -5.6 72 72 Calm 30.16 1021 10 16.0934 0 0
5:53 am 05:53 Clear 28 -2.2 22 -5.6 78 78 Calm 30.15 1021 10 16.0934 0 0
6:53 am 06:53 Clear 29 -1.7 22 -5.6 75 75 Calm 30.14 1021 10 16.0934 0 0
7:53 am 07:53 Sunny 29 -1.7 22 -5.6 75 75 VRB 5 7 30.14 1021 10 16.0934 0 0
8:53 am 08:53 Sunny 32 0 23 -5 69 69 S 6 9 30.12 1020 10 16.0934 0 0
9:53 am 09:53 Sunny 37 2.8 23 -5 57 57 SW 8 13 30.12 1020 10 16.0934 0 0
10:53 am 10:53 Sunny 39 3.9 23 -5 53 53 SW 13 20 30.12 1020 10 16.0934 0 0
11:53 am 11:53 Mostly Sunny 42 5.6 24 -4.4 49 49 WSW 12 19 30.11 1020 10 16.0934 0 0
12:53 pm 12:53 Sunny 43 6.1 24 -4.4 47 47 WSW 15 24 30.09 1019 10 16.0934 0 0
1:53 pm 13:53 Sunny 44 6.7 26 -3.3 49 49 W 13 20 30.09 1019 10 16.0934 0 0
2:53 pm 14:53 Sunny 45 7.2 26 -3.3 48 48 WSW 12 19 30.08 1019 10 16.0934 0 0
3:53 pm 15:53 Sunny 45 7.2 24 -4.4 44 44 W 13 20 30.08 1019 10 16.0934 0 0
4:53 pm 16:53 Sunny 42 5.6 25 -3.9 51 51 W 13 20 30.08 1019 10 16.0934 0 0
5:53 pm 17:53 Clear 40 4.4 24 -4.4 53 53 W 7 11 30.09 1019 10 16.0934 0 0
6:53 pm 18:53 Clear 33 0.6 24 -4.4 70 70 WSW 5 7 30.11 1020 10 16.0934 0 0
7:53 pm 19:53 Clear 30 -1.1 24 -4.4 79 79 Calm 30.14 1021 10 16.0934 0 0
8:53 pm 20:53 Mostly Cloudy 36 2.2 26 -3.3 67 67 W 6 9 30.15 1021 10 16.0934 0 0
9:53 pm 21:53 Cloudy 38 3.3 26 -3.3 62 62 W 8 13 30.15 1021 10 16.0934 0 0
10:53 pm 22:53 Clear 35 1.7 24 -4.4 64 64 WSW 3 6 30.14 1021 10 16.0934 0 0
11:53 pm 23:53 Cloudy 30 -1.1 25 -3.9 82 82 Calm 30.14 1021 10 16.0934 0 0

Powered by AerisWeather